Regional Weather Roundup
Issued by NWS Little Rock, AR

Home | Current Version | Previous Version | Graphics & Text | Print | Product List | Glossary On
Versions: 1 2 3 4 5 6 7 8 9 10 11 12 13 14 15 16 17 18 19 20 21 22 23 24 25 26 27 28 29 30 31 32
000
ASUS44 KLZK 181605
RWRLZK

WEATHER ROUNDUP FOR ARKANSAS
NATIONAL WEATHER SERVICE LITTLE ROCK AR
1000 AM CST MON DEC 18 2017

NOTE: "FAIR" INDICATES FEW OR NO CLOUDS BELOW 12,000 FEET WITH NO
SIGNIFICANT WEATHER AND/OR OBSTRUCTIONS TO VISIBILITY.

ARZ001-003-010-029-181700-
NORTHWEST ARKANSAS

CITY           SKY/WX    TMP DP  RH WIND       PRES   REMARKS
FAYETTEVILLE   CLOUDY    44  42  93 W3        30.20R
FORT SMITH     CLOUDY    49  45  86 W7        30.22R
HARRISON       CLOUDY    47  40  76 W8        30.18R
BENTONVILLE    CLOUDY    43  40  89 SW9       30.21R
ROGERS         CLOUDY    43  40  89 SW9       30.20R
SILOAM SPGS    CLOUDY    42  41  96 SW6       30.21R FOG
HIGHFILL       CLOUDY    43  41  93 W7        30.20R
SPRINGDALE     CLOUDY    43  43 100 W7        30.21R
$$

ARZ004-005-016-181700-
NORTH CENTRAL ARKANSAS

CITY           SKY/WX    TMP DP  RH WIND       PRES   REMARKS
BATESVILLE     PTSUNNY   49  46  90 W7        30.20S
FLIPPIN        PTSUNNY   49  39  68 W8        30.19R
MTN HOME       CLOUDY    48  41  76 VRB6      30.17R
$$

ARZ040-041-181700-
WEST CENTRAL ARKANSAS

CITY           SKY/WX    TMP DP  RH WIND       PRES   REMARKS
MENA           CLOUDY    48  46  93 CALM      30.21R
MOUNT IDA      CLOUDY    48  45  89 CALM      30.19R
$$

ARZ009-017-025-026-028-181700-
NORTHEAST ARKANSAS

CITY           SKY/WX    TMP DP  RH WIND       PRES   REMARKS
JONESBORO      CLOUDY    47  46  97 SW10      30.21R
NEWPORT        MOSUNNY   47  46  97 SW10      30.21R
WALNUT RIDGE   CLOUDY    46  45  96 SW10      30.20R
BLYTHEVILLE    CLOUDY    47  47 100 W12       30.21S
NW BLYTHEVILLE CLOUDY    46  45  93 SW9G17    30.21R
$$

ARZ022-023-033-042-044-181700-
CENTRAL ARKANSAS

CITY           SKY/WX    TMP DP  RH WIND       PRES   REMARKS
LITTLE ROCK    CLOUDY    49  47  93 W3        30.23S
N LITTLE ROCK    N/A     48  47  95 CALM      30.25S
JACKSONVILLE   LGT RAIN  50  48  93 W6        30.21S
SEARCY         CLOUDY    48  48 100 CALM      30.23R
HOT SPRINGS    CLOUDY    50  47  89 W6        30.22S
RUSSELLVILLE   CLOUDY    50  44  80 W12       30.21R
CLINTON        CLOUDY    50  46  87 CALM      30.20S
$$

ARZ036-181700-
EAST ARKANSAS

CITY           SKY/WX    TMP DP  RH WIND       PRES   REMARKS
WEST MEMPHIS   CLOUDY    45  45 100 S7        30.22S
$$

ARZ050-053-066-070-073-181700-
SOUTHWEST ARKANSAS

CITY           SKY/WX    TMP DP  RH WIND       PRES   REMARKS
ARKADELPHIA    CLOUDY    48  46  93 CALM      30.25R
CAMDEN         CLOUDY    48  45  87 CALM      30.25R FOG
TEXARKANA      CLOUDY    47  46  97 CALM      30.24R
EL DORADO      CLOUDY    46  46 100 CALM      30.25R
DE QUEEN       CLOUDY    48  46  93 CALM      30.22R FOG
$$

ARZ056-057-069-181700-
SOUTHEAST ARKANSAS

CITY           SKY/WX    TMP DP  RH WIND       PRES   REMARKS
PINE BLUFF     CLOUDY    46  43  89 NW6       30.25R
STUTTGART      CLOUDY    49  46  90 SW7       30.24R
MONTICELLO     CLOUDY    45  43  93 N5        30.25S

$$






USA.gov is the U.S. government's official web portal to all federal, state and local government web resources and services.